Home   Weather   New City   Past weeks

Flag for USA Past Weather in New City, New York, USA — Yesterday and Last 2 Weeks

Now
32 °F

Scattered clouds.


Feels Like: 23 °F
Forecast: 27 / 36 °F
Wind: 12 mph from West

Location: Westchester County Airport

Current Time: Dec 10, 2016 at 11:56:43 am

Latest Report: Dec 10, 2016 at 10:56 am


Visibility: 10 mi

Pressure: 30.37 "Hg

Humidity: 47%

Dew Point: 14 °F

Location of New CityLocation

Past Weather in New City — Graph

°F

New City Temperature Yesterday

Maximum temperature yesterday: 38 °F (at 12:56 pm)
Minimum temperature yesterday: 27 °F (at 11:56 pm)
Average temperature yesterday: 32 °F

High & Low Weather Summary for the Past Weeks

 TemperatureHumidityPressure
High59 °F (Nov 29, 9:56 pm)97% (Nov 25, 10:56 pm)30.39 "Hg (Nov 25, 10:56 pm)
Low25 °F (Dec 10, 5:56 am)37% (Dec 9, 2:56 pm)29.45 "Hg (Dec 1, 3:04 am)
Average42 °F70%30.01 "Hg
* Reported Nov 25 10:04 am — Dec 10 10:56 am, New City, Weather by CustomWeather, © 2016

Note: Actual official high and low records may vary slightly from our data, if they occured in-between our weather recording intervals... More about our weather records

Advertising

New City Weather History for the Previous 24 Hours

Scroll right to see more
 ConditionsComfort  
Time TempWeatherWind HumidityBarometerVisibility
10:56 am
Sat, Dec 10
32 °FScattered clouds.12 mph47%30.37 "Hg10 mi
9:56 am30 °FPassing clouds.14 mph51%30.39 "Hg10 mi
8:56 am29 °FPassing clouds.15 mph54%30.39 "Hg10 mi
7:56 am26 °FPassing clouds.6 mph66%30.37 "Hg10 mi
6:56 am26 °FPassing clouds.9 mph66%30.36 "Hg10 mi
5:56 am25 °FPassing clouds.10 mph66%30.34 "Hg10 mi
4:56 am26 °FClear.8 mph63%30.32 "Hg10 mi
3:56 am26 °FClear.8 mph63%30.31 "Hg10 mi
2:56 am26 °FClear.12 mph63%30.30 "Hg10 mi
1:56 am27 °FClear.10 mph61%30.29 "Hg10 mi
12:56 am27 °FClear.17 mph61%30.25 "Hg10 mi
11:56 pm
Fri, Dec 9
27 °FClear.13 mph58%30.26 "Hg10 mi
10:56 pm28 °FClear.14 mph53%30.27 "Hg10 mi
9:56 pm28 °FClear.14 mph51%30.26 "Hg10 mi
8:56 pm28 °FClear.18 mph49%30.25 "Hg10 mi
7:56 pm29 °FClear.20 mph47%30.25 "Hg10 mi
6:56 pm30 °FClear.24 mph47%30.22 "Hg10 mi
5:56 pm31 °FClear.24 mph43%30.19 "Hg10 mi
4:56 pm32 °FPassing clouds.30 mph45%30.17 "Hg10 mi
3:56 pm34 °FScattered clouds.30 mph42%30.13 "Hg10 mi
2:56 pm36 °FPartly sunny.29 mph37%30.10 "Hg10 mi
1:56 pm37 °FPartly sunny.25 mph39%30.07 "Hg10 mi
12:56 pm38 °FPartly sunny.21 mph39%30.07 "Hg10 mi
11:56 am37 °FPartly sunny.23 mph44%30.08 "Hg10 mi
Weather by CustomWeather, © 2016

See weather overviewHow to use our weather pages